Location: ???�??????
(48.4843°N, 33.1037°E)
Time: 07:02:57
(UTC+00:00)

Daily predictions for brighter satellites

Satellite Brightness Start Highest point End
(mag) Time Altitude Azimuth Time Altitude Azimuth Time Altitude Azimuth
USA 281 3.3 14:55:07 10° SSE 15:01:41 86° ENE 15:08:18 10° NNW
Envisat 3.4 14:58:07 10° S 15:03:11 73° WSW 15:08:18 10° NNW
Cosmos 292 Rocket 4.4 15:00:23 10° SSE 15:04:45 36° ESE 15:09:08 10° NE
Okean O Rocket 1.6 15:03:38 10° SSE 15:08:00 86° ENE 15:12:23 10° NNW
Meteor 2-14 Rocket 4.4 15:03:33 10° N 15:09:43 71° ENE 15:15:48 10° SSE
YAOGAN 1 4.0 15:07:29 10° ESE 15:10:27 18° ENE 15:13:26 10° NNE
FALCON 9 DEB 4.1 15:09:01 10° WNW 15:12:15 37° N 15:15:28 10° ENE
Cosmos 2219 3.5 15:07:06 10° NNW 15:12:40 47° NE 15:18:12 10° SE
CZ-2C R/B 4.2 15:08:18 10° ESE 15:12:55 26° ENE 15:17:27 10° N
GRACE-FO 1 4.5 15:09:29 10° N 15:13:06 81° E 15:16:43 10° S
GRACE-FO 2 4.5 15:09:51 10° N 15:13:29 82° E 15:17:05 10° S
ERBS 4.2 15:12:15 10° WNW 15:14:54 21° NNW 15:17:33 10° NE
Landsat 5 4.2 15:11:48 10° N 15:15:35 52° WNW 15:19:25 10° SSW
Cosmos 1943 Rocket 4.3 15:11:41 10° W 15:15:47 21° NW 15:19:52 10° N
FALCON 9 DEB 4.0 15:12:54 10° SSW 15:15:49 32° SE 15:18:41 10° ENE
SMAP 3.3 15:11:14 10° SSE 15:15:53 80° WSW 15:20:34 10° NNW
Meteor 2-21 4.5 15:10:09 10° N 15:16:21 82° E 15:22:27 10° SSE
FALCON 9 DEB 3.8 15:17:09 10° SSW 15:20:08 36° SE 15:22:50 12° ENE
Cosmos 1726 Rocket 3.8 15:16:03 10° SSE 15:20:12 46° E 15:24:25 10° NNE
Cosmos 1455 4.2 15:20:56 10° E 15:21:06 10° E 15:21:06 10° E
Cosmos 1758 Rocket 3.8 15:17:43 10° NNW 15:22:08 74° W 15:26:28 10° S
USA 307 3.4 15:20:37 10° WNW 15:24:46 46° NNE 15:28:30 12° E
ATLAS 5 CENTAUR R/B 3.6 15:22:51 10° WNW 15:26:15 21° NNW 15:30:02 10° NNE
Cosmos 2228 2.9 15:23:17 10° S 15:27:30 74° E 15:31:48 10° NNE
Cosmos 1939 Rocket 3.0 15:25:36 10° SE 15:29:24 46° ENE 15:33:10 10° N
USA 308 3.4 15:25:27 10° WNW 15:29:37 47° NNE 15:33:09 14° E
YAOGAN 6 4.3 15:26:51 10° SSW 15:30:17 39° W 15:33:47 10° NNW
FALCON 9 DEB 3.5 15:28:55 10° SW 15:32:01 43° SE 15:34:19 16° ENE
CZ-4B R/B 1.1 15:28:58 10° NNE 15:32:13 78° ESE 15:35:22 10° S
CZ-4B R/B 4.2 15:29:10 10° S 15:34:38 54° W 15:40:03 10° NNW
Cosmos 1606 Rocket 3.5 15:31:24 10° S 15:35:46 84° E 15:40:12 10° N
ARGOS 4.4 15:32:01 10° ESE 15:36:02 22° ENE 15:40:04 10° N
Helios 1A Rocket 3.3 15:32:24 10° SE 15:36:16 40° ENE 15:40:08 10° N
Cosmos 1745 Rocket 4.5 15:33:58 10° N 15:39:48 38° ENE 15:45:38 10° SE
Cosmos 1656 4.2 15:35:16 10° S 15:40:22 38° ESE 15:45:33 10° NE
GENESIS II 4.3 15:36:51 10° SW 15:40:53 81° NW 15:44:57 10° NE
Okean-O 3.0 15:37:13 10° SE 15:41:24 42° ENE 15:45:35 10° N
SKYMED 2 3.8 15:38:07 10° NNE 15:42:21 49° E 15:46:34 10° S
BREEZE-M R/B 3.3 15:39:35 10° W 15:43:08 77° N 15:48:28 16° E
FALCON 9 DEB 3.1 15:40:32 10° SW 15:43:41 56° SSE 15:45:35 21° ENE
Meteor 2-16 Rocket 4.4 15:39:17 10° N 15:45:25 88° E 15:51:31 10° S
H-2A R/B 2.9 15:41:35 10° SE 15:46:19 32° ENE 15:51:06 10° N
Cosmos 2227 Rocket 2.2 15:41:10 10° NNW 15:46:49 62° ENE 15:52:24 10° SE
GEOS 3 Rocket 4.1 15:43:25 13° ESE 15:47:51 44° NE 15:52:58 10° NNW
Cosmos 1689 Rocket 2.2 15:45:57 10° NNE 15:48:47 46° E 15:51:34 10° S
Cosmos 1400 Rocket 2.9 15:45:00 10° S 15:49:01 56° E 15:53:02 10° NNE
PSLV R/B 4.1 15:47:23 10° NNE 15:51:28 49° E 15:55:28 10° S
Cosmos 2263 Rocket 3.7 15:48:13 10° N 15:52:04 18° NE 15:53:51 16° ENE
Cosmos 1244 Rocket 4.4 15:46:12 10° N 15:52:26 83° E 15:58:42 10° S
Cosmos 2058 3.4 15:49:25 10° N 15:53:11 35° ENE 15:56:58 10° SE
CZ-4 R/B 1.5 15:49:30 10° SE 15:53:14 46° ENE 15:56:57 10° N
CSL-04 Rocket 4.2 15:48:34 10° SE 15:53:37 37° ENE 15:58:38 10° N
CZ-4C R/B 4.0 15:49:39 10° NW 15:54:54 25° NNE 15:59:13 15° ENE
Cosmos 1892 2.9 15:52:01 10° N 15:55:49 50° ENE 15:59:35 10° SSE
Cosmos 1408 3.1 15:57:15 10° N 16:00:40 36° ENE 16:02:50 19° SE
Cosmos 1953 Rocket 4.4 16:00:07 10° NNW 16:04:25 53° W 16:08:44 10° S
Cosmos 1697 Rocket 3.3 15:59:45 10° SSE 16:04:40 33° ESE 16:07:49 19° NE
IRS-1C Rocket 4.3 16:01:50 10° S 16:07:06 75° WSW 16:12:25 10° NNW
Cosmos 1300 3.6 16:04:23 10° SSW 16:08:06 50° WNW 16:11:50 10° N
USA 215 3.8 16:04:18 20° ENE 16:08:32 46° N 16:14:43 10° WNW
SeaSat 1 3.1 16:06:39 25° E 16:08:42 35° NE 16:13:10 10° NNW
Cosmos 2058 Rocket 3.1 16:04:29 10° S 16:08:59 88° W 16:13:32 10° N
SL-4 R/B 2.0 16:08:48 10° WNW 16:12:19 53° N 16:13:29 36° ENE
CZ-2D R/B 3.3 16:09:06 10° S 16:12:54 79° WSW 16:16:44 10° NNW
Cosmos 1346 Rocket 2.7 16:10:16 10° N 16:14:14 60° ENE 16:18:10 10° SSE
ATLAS 2AS CENTAUR R/B 3.6 16:07:20 10° NW 16:14:23 37° NNE 16:17:50 25° ENE
USA 305 2.9 16:11:22 10° WNW 16:15:40 70° NNE 16:17:18 36° E
Cosmos 44 3.6 16:11:59 10° SW 16:16:29 62° NW 16:20:38 14° NNE
Cosmos 1825 2.7 16:13:38 10° N 16:16:47 36° ENE 16:16:47 36° ENE
SJ-11-01 4.3 16:15:01 11° SE 16:19:21 53° ENE 16:23:55 10° N
Cosmos 1315 Rocket 3.1 16:16:22 10° SSE 16:20:07 42° E 16:20:29 41° ENE
USA 306 2.8 16:17:46 10° WNW 16:22:05 75° NNE 16:23:25 42° E
Cosmos 968 Rocket 3.5 16:18:48 10° NNW 16:24:04 83° WSW 16:29:15 10° SSE
ERS-2 4.4 16:21:09 10° N 16:24:10 25° WNW 16:27:11 10° WSW
Aureole 3 Rocket 3.6 16:21:11 10° SSW 16:25:10 66° WNW 16:30:46 10° N
Cosmos 2297 Rocket 2.8 16:21:05 10° NW 16:26:40 59° WSW 16:32:12 10° S
Cosmos 1980 Rocket 3.4 16:22:45 10° SSE 16:25:27 22° SE 16:25:27 22° SE
MOS 1 Rocket 3.4 16:24:37 10° NNE 16:29:11 51° E 16:33:59 10° S
Cosmos 1340 3.9 16:26:13 10° NNW 16:29:48 42° W 16:33:23 10° SSW
COSMO-SKYMED 1 3.2 16:26:10 10° N 16:30:26 56° WNW 16:34:41 10° SSW
Cosmos 2315 Rocket 4.4 16:24:52 10° SSE 16:30:30 38° E 16:36:08 10° NNE
S3M 3.8 16:25:00 10° S 16:31:03 72° E 16:37:13 10° NNE
HJ-1C 4.4 16:34:03 34° N 16:34:03 34° N 16:36:10 10° N
Cosmos 1076 Rocket 3.3 16:28:42 10° N 16:32:57 67° E 16:34:44 33° SSE
CSL-04 Debris 4.1 16:28:25 10° SSE 16:33:51 78° ENE 16:39:20 10° NNW
Cosmos 2360 4.3 16:37:39 10° S 16:43:09 50° ESE 16:44:09 45° ENE
Lacrosse 5 2.9 16:38:37 10° WNW 16:43:11 32° N 16:44:18 29° NNE
YAOGAN 1 3.2 16:41:54 10° S 16:46:09 57° W 16:50:26 10° NNW
FALCON 9 DEB 4.1 16:46:16 10° WNW 16:48:52 42° NNW 16:48:52 42° NNW
FALCON 9 DEB 4.1 16:48:38 10° W 16:51:05 43° WNW 16:51:05 43° WNW
ERBS 4.5 16:49:24 10° NW 16:51:09 19° NNW 16:51:09 19° NNW
CZ-2C R/B 3.7 16:46:39 10° S 16:52:24 62° W 16:58:00 10° NNW
Meteor 2-3 Rocket 4.4 16:48:00 10° N 16:52:25 38° NE 16:52:25 38° NE
Cosmos 1812 Rocket 3.4 16:49:07 10° S 16:58:41 - NNE 16:53:14 75° SSE
Cosmos 1503 Rocket 4.0 16:48:49 10° NNW 16:54:02 78° WSW 16:56:47 29° SSE
FALCON 9 DEB 4.4 16:52:58 10° W 16:55:10 36° WNW 16:55:10 36° WNW
Cosmos 2278 4.4 16:51:07 10° S 16:54:44 35° SSE 16:54:44 35° SSE
Cosmos 1455 2.5 16:52:48 10° SSW 16:56:10 62° WSW 16:56:10 62° WSW
DMSP B5D1-3 4.5 16:53:24 10° NNE 16:58:34 85° WNW 17:03:43 10° SSW
Meteor 2-10 Rocket 3.9 16:58:32 10° SSW 17:03:47 62° WNW 17:08:52 10° N
USA 307 3.2 17:00:45 10° WNW 17:04:41 64° WSW 17:04:41 64° WSW
Cosmos 1354 Rocket 4.2 17:00:18 10° NNW 17:05:33 72° WSW 17:07:26 40° S
Cosmos 2082 4.1 17:00:01 10° NNW 17:05:43 63° WSW 17:08:49 27° S
USA 308 3.4 17:05:35 10° WNW 17:09:20 57° WSW 17:09:20 57° WSW
ATLAS 5 CENTAUR R/B 4.1 17:09:54 10° NNW 17:12:46 15° N 17:13:29 15° NNE
ARGOS 3.3 17:13:10 31° S 17:15:47 70° WSW 17:21:15 10° NNW
Cosmos 1992 Rocket 4.3 17:11:48 10° SW 17:16:57 63° WNW 17:19:35 29° N
Cosmos 2369 3.7 17:14:21 10° SSW 17:20:06 83° WNW 17:21:09 61° NNE
H-2A R/B 3.2 17:20:24 10° S 17:25:34 45° W 17:30:49 10° NNW
GEOS 3 Rocket 4.4 17:24:33 41° SSW 17:25:50 49° SW 17:31:04 10° NW
Ariane Rocket 3.8 17:27:38 44° N 17:27:38 44° N 17:31:06 10° NNW
Geosat 4.4 17:26:30 48° N 17:27:33 59° NW 17:32:28 10° SW
CZ-4 R/B 4.2 17:26:01 10° SW 17:28:31 16° W 17:31:01 10° NW
Cosmos 2227 Rocket 4.3 17:25:59 10° NW 17:30:24 24° WSW 17:34:49 10° SSW
Cosmos 2263 Rocket 2.8 17:31:20 10° NNW 17:35:34 50° N 17:35:34 50° N
Atlas Centaur 2 4.5 17:31:22 10° SW 17:37:19 21° S 17:37:33 21° S
NOSS 3-4 (A) 3.7 17:36:58 10° NW 17:43:57 89° SW 17:44:11 85° SSE
NOSS 3-4 (C) 3.7 17:37:05 10° NW 17:44:03 89° SW 17:44:16 85° SSE
CZ-4C R/B 3.2 17:38:15 10° NW 17:44:25 51° NNE 17:44:25 51° NNE
SeaSat 1 3.5 17:46:27 42° WSW 17:46:27 42° WSW 17:50:51 10° NW
Cosmos 1697 Rocket 3.5 17:43:05 10° SW 17:48:28 47° NW 17:49:38 41° NNW
USA 215 3.2 17:51:39 76° NNW 17:51:39 76° NNW 17:57:44 10° NW
NOSS 3-3 (A) 4.4 17:48:10 10° WSW 17:54:02 59° NW 17:54:18 59° NNW
NOSS 3-3 (C) 4.4 17:48:16 10° WSW 17:54:09 59° NW 17:54:24 59° NNW
ATLAS 2AS CENTAUR R/B 2.9 17:58:36 10° NW 18:05:17 71° WNW 18:05:17 71° WNW
Cosmos 1980 Rocket 4.1 18:05:31 10° SW 18:07:19 21° SW 18:07:19 21° SW
Lacrosse 5 4.2 18:21:52 10° NW 18:23:30 20° NW 18:23:30 20° NW
